Regional Weather Roundup
Issued by NWS Wakefield, VA

Home | Current Version | Previous Version | Text Only | Print | Product List | Glossary Off
Versions: 1 2 3 4 5 6 7 8 9 10 11 12 13 14 15 16 17 18 19 20 21 22 23 24 25 26 27 28 29 30 31 32 33 34 35 36 37 38 39 40 41 42 43 44 45 46 47 48 49 50

000
ASUS41 KAKQ 221715
RWRAKQ

REGIONAL WEATHER ROUNDUP
NATIONAL WEATHER SERVICE WAKEFIELD VA
100 PM EDT FRI MAY 22 2015

Note: "fair" indicates few or no clouds below 12,000 feet with no
significant weather and/or obstructions to visibility. * = Denotes
station may not report precipitation (e.g., rain,snow,etc.),
thunder or fog.

VAZ042-051-052>054-056-221800-
NORTHERN VIRGINIA

CITY           SKY/WX    TMP DP  RH WIND       PRES   REMARKS
WASH NATIONAL  MOSUNNY   73  42  32 NW14G20   30.11F
DULLES         MOSUNNY   69  42  37 W10G22    30.11F
FORT BELVOIR   SUNNY     72  43  35 W13       30.11F
QUANTICO       SUNNY     70  41  34 W7        30.13S
FREDERICKSBRG* SUNNY     71  44  37 CALM      30.13S
STAFFORD*      SUNNY     69  40  34 NW9       30.18S
WARRENTON      SUNNY     72  47  41 W9G18     30.13F
CULPEPER*      SUNNY     69  44  40 W8        30.14F
MANASSAS*      SUNNY     70  43  37 NW13G23   30.13S
LEESBURG*      SUNNY     70  46  43 W16G25    30.12F
WINCHESTER     SUNNY     70  32  24 NW10G26   30.12F
FRONT ROYAL*   FAIR      68  43  40 W10G20    30.12F
LURAY*         FAIR      70  41  35 W5        30.14F
$$

VAZ048-049-060>072-079>083-221800-
CENTRAL AND SOUTH CENTRAL VIRGINIA

CITY           SKY/WX    TMP DP  RH WIND       PRES   REMARKS
RICHMOND       MOSUNNY   72  41  32 W9        30.15S
CHESTERFIELD*  NOT AVBL
PETERSBURG*    SUNNY     70  41  34 NW9       30.16F
HANOVER        SUNNY     70  43  37 W9        30.16S
TAPPAHANNOCK*  SUNNY     71  34  25 W7        30.14S
QUINTON*       FAIR      68  44  41 NW7G17    30.14F
CHARLOTTSVILLE SUNNY     68  42  38 VRB7      30.15F
GORDONSVILLE*  FAIR      67  42  40 NW6       30.14F
ORANGE*        SUNNY     70  43  37 S6G17     30.16S
LOUISA*        SUNNY     70  43  37 W8        30.14S
BUMPASS*       FAIR      67  42  39 NW6       30.15S
FARMVILLE*     SUNNY     69  40  33 SW3       30.16S
CREWE*         FAIR      69  44  40 W5        30.17S
FORT PICKETT*  FAIR      68  42  38 NW7       30.17S
CHASE CITY*    FAIR      69  42  38 N7        30.18F
CLARKSVILLE*   FAIR      68  39  34 N5        30.18F
SOUTH HILL*    SUNNY     66  41  39 CALM      30.23S
LAWRENCEVILLE* FAIR      68  43  40 CALM      30.17S
EMPORIA*       SUNNY     68  41  37 CALM      30.18F
$$

VAZ088>098-221800-
SOUTHEAST VIRGINIA

CITY           SKY/WX    TMP DP  RH WIND       PRES   REMARKS
NORFOLK        SUNNY     68  39  34 N6        30.14S
VIRGINIA BEACH SUNNY     70  41  34 W8        30.14S
NORFOLK NAVAL  MOSUNNY   73  47  39 W9        30.16S
WEST POINT*    SUNNY     71  43  37 W8        30.16S
SALUDA*        FAIR      67  44  43 NW10G17   30.13S
NEWPORT NEWS   SUNNY     74  43  32 W8        30.14S
LANGLEY AFB    SUNNY     69  42  37 VRB2      30.13S
FORT EUSTIS    SUNNY     67  48  49 VRB7      30.13S
WILLIAMSBURG*  SUNNY     75  48  38 N7        30.15S
HR EXEC AP*    FAIR      70  45  40 N7        30.17S
FRANKLIN*      SUNNY     69  42  37 CALM      30.16S
WAKEFIELD      SUNNY     70  44  39 NW7       30.15F
$$

VAZ020-022-025-037-045-221800-
WEST CENTRAL AND SOUTHWEST VIRGINIA

CITY           SKY/WX    TMP DP  RH WIND       PRES   REMARKS
STAUNTON*      PTSUNNY   67  40  36 NE5       30.18S
WAYNESBORO*    FAIR      64  41  42 CALM      30.17S
HOT SPRINGS VA MOSUNNY   57  39  50 W10G16    30.21R
LYNCHBURG      SUNNY     67  41  38 SW6       30.19F
DANVILLE       SUNNY     70  40  33 CALM      30.20F
SOUTH BOSTON*  FAIR      69  39  32 NW5       30.19S
MARTINSVILLE   SUNNY     69  38  31 N7        30.23F
ROANOKE        SUNNY     68  40  35 NW7G20    30.22F
BLACKSBURG     SUNNY     59  41  50 W7        30.27S
DUBLIN*        SUNNY     63  42  46 N6        30.26S
MARION*        SUNNY     60  37  43 NW7       30.30S
HILLSVILLE*    SUNNY     58  39  47 NW9       30.25S
RICHLANDS*     FAIR      56  26  32 NW5       30.29F
WISE*          SUNNY     59  41  51 NW6       30.31S
ABINGDON*      SUNNY     63  42  46 NE3       30.28F
$$

MDZ021>025-VAZ099-100-221800-
SOUTHERN MARYLAND AND THE DELMARVA PENINSULA

CITY           SKY/WX    TMP DP  RH WIND       PRES   REMARKS
PATUXENT RIVER MOSUNNY   71  45  39 NW13      30.11S
BAY BRIDGE APT   N/A    N/A N/A N/A W13       30.09S
LEONARDTOWN    SUNNY     68  43  40 NW8       30.13S
DOVER          SUNNY     69  48  46 W13G25    30.02S
GEORGETOWN     SUNNY     69  45  41 NW12G17   30.07F
EASTON         SUNNY     70  48  46 NW14G20   30.13S
CAMBRIDGE      SUNNY     70  45  40 W10G18    30.10R
SALISBURY      SUNNY     69  45  41 NW13G24   30.08S
OCEAN CITY       N/A     71  45  39 NW15      30.07S
WALLOPS ISLAND SUNNY     69  47  45 NW8G17    30.10R
ACCOMACK*      SUNNY     66  52  59 NW10G16   30.12S
$$

NCZ012>017-030>032-221800-
NORTH CENTRAL AND EASTERN NORTH CAROLINA

CITY           SKY/WX    TMP DP  RH WIND       PRES   REMARKS
ROANOKE RAPIDS FAIR      68  43  40 CALM      30.17F
RALEIGH        MOSUNNY   69  45  41 NE7       30.20S
ELIZABETH CITY SUNNY     68  47  46 N8        30.15S
AHOSKIE*       SUNNY     67  42  40 N5        30.17S
EDENTON*       SUNNY     68  46  45 N3        30.16F
CURRITUCK*     SUNNY     68  39  34 N6        30.16S
KILL DEVIL HLS SUNNY     66  48  51 NE9       30.15S
MANTEO         SUNNY     64  50  60 N9        30.16F
CAPE HATTERAS  PTSUNNY   66  52  60 VRB7      30.16S
TARBORO*       FAIR      70  44  38 NE6       30.19R
GOLDSBORO      MOSUNNY   69  47  45 VRB5      30.16S
WASHINGTON     SUNNY    N/A N/A N/A NW6       30.18S
GREENVILLE     SUNNY     68  45  42 N8        30.19S
NEW BERN       PTSUNNY   70  50  49 MISG      30.18F
WILMINGTON     PTSUNNY   71  54  54 CALM      30.17S
$$

VAZ048-221800-
ELSEWHERE

CITY           SKY/WX    TMP DP  RH WIND       PRES   REMARKS
HARRISBURG PA  MOSUNNY   70  43  37 W16G25    30.01F
BALTIMORE      MOSUNNY   70  43  37 W14G22    30.08S
ANNAPOLIS      SUNNY     69  42  37 NW10      30.08F
ANDREWS AFB    SUNNY     69  43  39 NW9G20    30.10S
PHILADELPHIA   MOSUNNY   73  39  29 W22       30.00F
HENDERSON NC   SUNNY     67  40  36 N6        30.19F
GREENSBORO     MOSUNNY   68  40  35 VRB5      30.21S
ROCKY MOUNT    SUNNY     69  43  38 VRB7      30.18F
$$

VAZ100-221800-
MARINE

STATION/POSITION TIME  TEMP    WIND        PRES    WAVE   SWELL
                       AIR SEA DIR/SP/G            HT/PER HT/PER
                 (UTC) (F)     (DEG/KT/KT) (MB)    (FT/S) (FT/S)
BRANDYWINE LGT   1600   62 63  300/ 15/ 18 1017.9R
CAPE MAY NJ      1600   64 64  290/ 12/ 16 1017.4R
LEWES DE         1600   64 62  310/ 16/ 19 1017.6R
15NM E FENWICK I 1650   60 59              1017.7R   3/ 5
OCEAN-CITY-INLET 1600   65 60  330/ 11/ 14 1017.8R
WACHAPREAGUE VA  1600   67 64  310/  3/ 11 1019.6R
THOMAS POINT MD  1700   67 65  300/ 15/ 17 1019.3F
GOOSES REEF MD   1700   66 65  300/ 12/ 16 1020.5R   2/ 3
SOLOMONS ISLAND  1600      68                N/A
BISHOPS HEAD MD  1600   63 64  290/ 16/ 18 1019.3R
PINEY POINT MD   1600          330/ 18/ 20   N/A
CAMBRIDGE MD     1600   63 69  290/ 13/ 17 1019.1R
LEWISETTA VA     1600   64 68              1019.7R
RAPPAHANNOCK LGT 1600          300/ 11/ 13 1020.5R
STINGRAY PT      1700   65 69  280/ 12/ 16 1019.9S   1/ 3
YORK RVR RNG VA  1600   64     340/  7/  9 1019.8R
YORKTOWN VA      1600   63 70  300/ 11/ 13 1020.3R
JAMESTOWN VA     1700   65 74  280/  6/ 10 1019.9S
DOMINION TERM VA 1600   64     300/ 11/ 13 1020.7R
KIPTOPEKE VA     1600      71  330/ 10/ 14   N/A
CHES BAY BRIDGE  1600   62 66  310/ 11/ 16 1020.3R
CAPE HENRY VA    1600   63     310/ 10/ 14 1019.4R
CHESAPEAKE LGHT  1600   62     330/ 13/ 14 1021.0R
WILLOUBY STN VA  1600   64     360/  9/ 11 1021.3R
CAPE HENRY BUOY  1628      62                N/A     3/ 6
1ST LANDING BUOY 1700      67              1020.3S
CAPE CHARLES BUO 1626      64                N/A     3/ 7   2/ 7
OFFSHORE WE BUOY 1611      60                N/A     4/ 7   3/ 7
64NM E OF VA BCH 1650   60 60  300/ 12/ 14 1020.1R   5/ 7   3/ 7
DUCK PIER NC     1600   62 67   10/ 10/ 13 1020.1R
44100 DUCK FRF   1624      60                N/A     5/ 8
44056 DUCK FRF   1611      64                N/A     4/ 6
OREGON INLET NC  1600   63 68   10/ 11/ 15 1021.2R
HATTERAS NC      1600   63 71   10/ 11/ 15 1020.8R
DIAMOND SHLS NC  1650   62 77   10/ 14/ 16 1021.2R   5/ 7   3/ 7
CAPE LOOKOUT NC  1700   67      20/  9/ 10 1021.2S
$$



USA.gov is the U.S. government's official web portal to all federal, state and local government web resources and services.